When you browse on this site, cookies collect data to enhance your experience and personalize the content and advertising you see.
Visit our Privacy Policy to learn more. By continuing to use the site, you agree to this use of cookies and data.
  • In United Kingdom
  • List of Countries
  • For 7 days
  • Water Temperature
  • Satellite Maps
  • Weather Map
  • Weather Widgets
  • user-avatar
    Login

    Hourly Weather Multan

    Today, 24 April, Wednesday

    Time Temperature Precipitation Wind Pressure Humidity
    00:00 +37°C° 0 mm 3 mps 743 mmHg 13%
    01:00 +36°C° 0 mm 2 mps 743 mmHg 14%
    02:00 +36°C° 0 mm 2 mps 743 mmHg 15%
    03:00 +35°C° 0 mm 3 mps 743 mmHg 16%
    04:00 +34°C° 0 mm 3 mps 743 mmHg 17%
    05:00 +33°C° 0 mm 5 mps 745 mmHg 23%
    06:00 +33°C° 0 mm 5 mps 745 mmHg 24%
    07:00 +34°C° 0 mm 5 mps 746 mmHg 25%
    08:00 +34°C° 0 mm 5 mps 746 mmHg 26%
    09:00 +36°C° 0 mm 5 mps 746 mmHg 23%
    10:00 +39°C° 0 mm 5 mps 746 mmHg 20%
    11:00 +41°C° 0 mm 5 mps 746 mmHg 18%
    12:00 +42°C° 0 mm 4 mps 745 mmHg 16%
    13:00 +43°C° 0 mm 3 mps 745 mmHg 15%
    14:00 +44°C° 0 mm 3 mps 744 mmHg 13%
    15:00 +44°C° 0 mm 3 mps 744 mmHg 13%
    16:00 +44°C° 0 mm 3 mps 744 mmHg 13%
    17:00 +44°C° 0 mm 3 mps 743 mmHg 12%
    18:00 +42°C° 0 mm 4 mps 743 mmHg 17%
    19:00 +40°C° 0 mm 5 mps 743 mmHg 21%
    20:00 +36°C° 0 mm 6 mps 743 mmHg 25%
    21:00 +36°C° 0 mm 5 mps 744 mmHg 25%
    22:00 +35°C° 0 mm 3 mps 744 mmHg 24%
    23:00 +34°C° 0 mm 1 mps 744 mmHg 24%

    Tomorrow, 25 April, Thursday

    Time Temperature Precipitation Wind Pressure Humidity
    00:00 +34°C° 0 mm 1 mps 744 mmHg 25%
    01:00 +33°C° 0 mm 1 mps 744 mmHg 25%
    02:00 +34°C° 0 mm 2 mps 744 mmHg 25%
    03:00 +34°C° 0 mm 2 mps 744 mmHg 26%
    04:00 +32°C° 0 mm 2 mps 744 mmHg 28%
    05:00 +31°C° 0 mm 2 mps 744 mmHg 29%
    06:00 +34°C° 0 mm 3 mps 744 mmHg 27%
    07:00 +35°C° 0 mm 3 mps 745 mmHg 25%
    08:00 +36°C° 0 mm 4 mps 745 mmHg 23%
    09:00 +38°C° 0 mm 4 mps 746 mmHg 21%
    10:00 +41°C° 0 mm 4 mps 746 mmHg 19%
    11:00 +43°C° 0 mm 4 mps 746 mmHg 16%
    12:00 +44°C° 0 mm 3 mps 745 mmHg 15%
    13:00 +44°C° 0 mm 3 mps 745 mmHg 14%
    14:00 +45°C° 0 mm 2 mps 745 mmHg 13%
    15:00 +45°C° 0 mm 2 mps 744 mmHg 13%
    16:00 +45°C° 0 mm 3 mps 744 mmHg 13%
    17:00 +45°C° 0 mm 3 mps 743 mmHg 12%
    18:00 +42°C° 0 mm 4 mps 744 mmHg 17%
    19:00 +40°C° 0 mm 5 mps 744 mmHg 22%
    20:00 +37°C° 0 mm 5 mps 744 mmHg 27%
    21:00 +36°C° 0 mm 4 mps 744 mmHg 28%
    22:00 +35°C° 0 mm 3 mps 745 mmHg 28%
    23:00 +35°C° 0 mm 2 mps 745 mmHg 29%

    Day after tomorrow, 26 April, Friday

    Time Temperature Precipitation Wind Pressure Humidity
    00:00 +33°C° 0 mm 1 mps 744 mmHg 30%
    01:00 +32°C° 0 mm 1 mps 744 mmHg 31%
    02:00 +32°C° 0 mm 1 mps 744 mmHg 32%
    03:00 +31°C° 0 mm 1 mps 744 mmHg 33%
    04:00 +31°C° 0 mm 2 mps 744 mmHg 34%
    05:00 +31°C° 0 mm 2 mps 744 mmHg 35%
    06:00 +32°C° 0 mm 2 mps 745 mmHg 32%
    07:00 +34°C° 0 mm 2 mps 745 mmHg 30%
    08:00 +36°C° 0 mm 3 mps 746 mmHg 28%
    09:00 +37°C° 0 mm 2 mps 746 mmHg 25%
    10:00 +39°C° 0 mm 2 mps 746 mmHg 22%
    11:00 +41°C° 0 mm 2 mps 747 mmHg 18%
    12:00 +42°C° 0 mm 2 mps 746 mmHg 17%
    13:00 +43°C° 0 mm 2 mps 746 mmHg 15%
    14:00 +44°C° 0 mm 1 mps 745 mmHg 13%
    15:00 +45°C° 0 mm 2 mps 744 mmHg 12%
    16:00 +45°C° 0 mm 2 mps 744 mmHg 12%
    17:00 +45°C° 0 mm 3 mps 743 mmHg 11%
    18:00 +43°C° 0 mm 3 mps 744 mmHg 12%
    19:00 +42°C° 0 mm 3 mps 744 mmHg 14%
    20:00 +39°C° 0 mm 3 mps 744 mmHg 15%
    21:00 +38°C° 0 mm 3 mps 745 mmHg 16%
    22:00 +37°C° 0 mm 3 mps 745 mmHg 17%
    23:00 +37°C° 0 mm 3 mps 745 mmHg 17%

    27 April, Saturday

    Time Temperature Precipitation Wind Pressure Humidity
    00:00 +36°C° 0 mm 3 mps 745 mmHg 18%
    01:00 +35°C° 0 mm 2 mps 745 mmHg 19%
    02:00 +34°C° 0 mm 2 mps 744 mmHg 20%
    03:00 +34°C° 0 mm 2 mps 745 mmHg 21%
    04:00 +32°C° 0 mm 2 mps 745 mmHg 21%
    05:00 +32°C° 0 mm 2 mps 745 mmHg 22%
    06:00 +34°C° 0 mm 2 mps 745 mmHg 20%
    07:00 +36°C° 0 mm 2 mps 746 mmHg 18%
    08:00 +37°C° 0 mm 3 mps 746 mmHg 15%
    09:00 +39°C° 0 mm 3 mps 747 mmHg 14%
    10:00 +41°C° 0 mm 2 mps 747 mmHg 13%
    11:00 +42°C° 0 mm 2 mps 747 mmHg 11%
    12:00 +43°C° 0 mm 2 mps 746 mmHg 10%
    13:00 +45°C° 0 mm 2 mps 745 mmHg 9%
    14:00 +45°C° 0 mm 2 mps 744 mmHg 8%
    15:00 +45°C° 0 mm 3 mps 744 mmHg 8%
    16:00 +45°C° 0 mm 3 mps 743 mmHg 8%
    17:00 +45°C° 0 mm 3 mps 743 mmHg 8%
    18:00 +44°C° 0 mm 3 mps 743 mmHg 9%
    19:00 +42°C° 0 mm 3 mps 743 mmHg 10%
    20:00 +39°C° 0 mm 2 mps 743 mmHg 11%
    21:00 +38°C° 0 mm 3 mps 744 mmHg 11%
    22:00 +38°C° 0 mm 3 mps 744 mmHg 12%
    23:00 +37°C° 0 mm 3 mps 744 mmHg 13%

    28 April, Sunday

    Time Temperature Precipitation Wind Pressure Humidity
    00:00 +36°C° 0 mm 3 mps 743 mmHg 13%
    01:00 +35°C° 0 mm 2 mps 743 mmHg 14%
    02:00 +34°C° 0 mm 2 mps 742 mmHg 15%
    03:00 +34°C° 0 mm 2 mps 742 mmHg 15%
    04:00 +32°C° 0 mm 2 mps 743 mmHg 15%
    05:00 +32°C° 0 mm 2 mps 743 mmHg 16%
    06:00 +34°C° 0 mm 2 mps 743 mmHg 14%
    07:00 +36°C° 0 mm 2 mps 744 mmHg 13%
    08:00 +38°C° 0 mm 3 mps 745 mmHg 12%
    09:00 +39°C° 0 mm 3 mps 745 mmHg 11%
    10:00 +42°C° 0 mm 3 mps 745 mmHg 10%
    11:00 +44°C° 0 mm 3 mps 745 mmHg 9%
    12:00 +44°C° 0 mm 3 mps 744 mmHg 8%
    13:00 +45°C° 0 mm 2 mps 743 mmHg 8%
    14:00 +46°C° 0 mm 2 mps 742 mmHg 7%
    15:00 +46°C° 0 mm 2 mps 742 mmHg 7%
    16:00 +46°C° 0 mm 3 mps 742 mmHg 7%
    17:00 +46°C° 0 mm 3 mps 741 mmHg 6%
    18:00 +44°C° 0 mm 3 mps 741 mmHg 7%
    19:00 +42°C° 0 mm 3 mps 742 mmHg 8%
    20:00 +39°C° 0 mm 3 mps 742 mmHg 9%
    21:00 +38°C° 0 mm 3 mps 742 mmHg 9%
    22:00 +38°C° 0 mm 3 mps 742 mmHg 9%
    23:00 +37°C° 0 mm 3 mps 742 mmHg 10%

    29 April, Monday

    Time Temperature Precipitation Wind Pressure Humidity
    00:00 +36°C° 0 mm 3 mps 742 mmHg 10%
    01:00 +35°C° 0 mm 3 mps 742 mmHg 11%
    02:00 +35°C° 0 mm 3 mps 741 mmHg 11%
    03:00 +34°C° 0 mm 3 mps 742 mmHg 12%
    04:00 +33°C° 0 mm 3 mps 742 mmHg 13%
    05:00 +32°C° 0 mm 2 mps 742 mmHg 14%
    06:00 +34°C° 0 mm 3 mps 742 mmHg 13%
    07:00 +35°C° 0 mm 3 mps 743 mmHg 13%
    08:00 +37°C° 0 mm 3 mps 743 mmHg 12%
    09:00 +39°C° 0 mm 3 mps 743 mmHg 11%
    10:00 +42°C° 0 mm 3 mps 743 mmHg 9%
    11:00 +44°C° 0 mm 3 mps 743 mmHg 8%
    12:00 +45°C° 0 mm 2 mps 743 mmHg 7%
    13:00 +45°C° 0 mm 1 mps 742 mmHg 6%
    14:00 +46°C° 0 mm 1 mps 741 mmHg 6%
    15:00 +46°C° 0 mm 1 mps 740 mmHg 6%
    16:00 +46°C° 0 mm 1 mps 740 mmHg 6%
    17:00 +46°C° 0 mm 1 mps 739 mmHg 6%
    18:00 +45°C° 0 mm 2 mps 739 mmHg 6%
    19:00 +43°C° 0 mm 3 mps 739 mmHg 7%
    20:00 +40°C° 0 mm 3 mps 740 mmHg 8%
    21:00 +40°C° 0 mm 3 mps 740 mmHg 8%
    22:00 +40°C° 0 mm 4 mps 740 mmHg 9%
    23:00 +38°C° 0 mm 4 mps 740 mmHg 9%
    Show more